Weather History for Galax, VA

Change the Weather History Date:

Friday, February 1, 2013

  Actual Average (KBLF) Record (KBLF)
Temperature  
Mean Temperature 28 °F 35 °F  
Max Temperature 39 °F 43 °F 71 °F (1990)
Min Temperature 17 °F 27 °F -2 °F (1971)
Degree Days  
Heating Degree Days 37 30  
Month to date heating degree days 30  
Since 1 July heating degree days 2750  
Cooling Degree Days 0 0  
Month to date cooling degree days 0  
Year to date cooling degree days 0  
Moisture  
Dew Point 9 °F    
Average Humidity 57    
Maximum Humidity 87    
Minimum Humidity 39    
Precipitation  
Precipitation 0.00 in 0.09 in 0.85 in (1985)
Month to date precipitation 0.09  
Year to date precipitation 2.99  
Snow  
Snow 0.00 in - - ()
Month to date snowfall  
Since 1 July snowfall  
Snow Depth -    
Sea Level Pressure  
Sea Level Pressure 30.08 in    
Wind  
Wind Speed 16 mph (WNW)    
Max Wind Speed 30 mph    
Max Gust Speed 38 mph    
Visibility 9 miles    
Events Snow    
T = Trace of Precipitation, MM = Missing Value Source: NWS Daily Summary

Daily Weather History Graph

Daily Weather History Graph

Search for Another Location

Airport:

Trip Planner

Search our weather history database for the weather conditions in past years. The results will help you decide how hot, cold, wet, or windy it might be!

Date:

Astronomy

Feb. 01, 2013 Rise Set
Actual Time 7:25 AM EST 5:49 PM EST
Civil Twilight 6:57 AM EST 6:16 PM EST
Nautical Twilight 6:26 AM EST 6:47 PM EST
Astronomical Twilight 5:56 AM EST 7:17 PM EST
Moon 11:43 PM EST (2/1) 10:07 AM EST (2/1)
Length of Visible Light 11h 18m
Length of Day
10h 24m
Waning Gibbous, 70% of the Moon is Illuminated
Feb 1
Waning Gibbous
Feb 3
Last Quarter
Feb 10
New
Feb 17
First Quarter
Feb 25
Full

Hourly Weather History & Observations

Time (EST) Temp. Windchill Dew Point Humidity Pressure Visibility Wind Dir Wind Speed Gust Speed Precip Events Conditions
12:15 AM 35.6 °F 26.2 °F 21.2 °F 56% 29.86 in 10.0 mi SW 15.0 mph 19.6 mph N/A   Clear
12:35 AM 35.6 °F 27.1 °F 23.0 °F 60% 29.85 in 10.0 mi SW 12.7 mph 19.6 mph N/A   Scattered Clouds
1:15 AM 35.6 °F 24.2 °F 23.0 °F 60% 29.83 in 10.0 mi SW 21.9 mph 32.2 mph N/A   Overcast
1:35 AM 37.4 °F 29.3 °F 24.8 °F 60% 29.82 in 10.0 mi SW 12.7 mph 21.9 mph N/A   Overcast
2:15 AM 39.2 °F 30.8 °F 24.8 °F 56% 29.80 in 10.0 mi WSW 15.0 mph 27.6 mph N/A   Mostly Cloudy
2:35 AM 39.2 °F 30.5 °F 26.6 °F 61% 29.81 in 10.0 mi WSW 16.1 mph 32.2 mph N/A   Mostly Cloudy
2:55 AM 37.4 °F 27.5 °F 28.4 °F 70% 29.80 in 10.0 mi WSW 18.4 mph 38.0 mph N/A   Scattered Clouds
3:15 AM 35.6 °F 24.2 °F 30.2 °F 81% 29.81 in 5.0 mi WSW 21.9 mph 33.4 mph N/A Snow Light Snow
3:35 AM 35.6 °F 24.5 °F 30.2 °F 81% 29.79 in 4.0 mi WSW 20.7 mph 31.1 mph N/A Snow Light Snow
3:55 AM 35.6 °F 25.5 °F 30.2 °F 81% 29.80 in 7.0 mi WSW 17.3 mph 27.6 mph N/A Snow Light Snow
4:15 AM 33.8 °F 22.8 °F 30.2 °F 87% 29.82 in 0.8 mi West 18.4 mph 28.8 mph N/A Snow Snow
4:35 AM 28.4 °F 12.7 °F 23.0 °F 80% 29.86 in 1.8 mi NW 29.9 mph 35.7 mph N/A Snow Light Snow
4:55 AM 26.6 °F 13.8 °F 21.2 °F 80% 29.89 in 3.0 mi NW 17.3 mph 29.9 mph N/A Snow Light Snow
5:15 AM 26.6 °F 13.8 °F 21.2 °F 80% 29.90 in 3.0 mi WNW 17.3 mph 27.6 mph N/A Snow Light Snow
5:35 AM 24.8 °F 10.3 °F 15.8 °F 69% 29.92 in 10.0 mi West 20.7 mph 32.2 mph N/A Snow Light Snow
5:55 AM 24.8 °F 11.1 °F 12.2 °F 59% 29.94 in 10.0 mi WNW 18.4 mph 28.8 mph N/A   Scattered Clouds
6:15 AM 23.0 °F 6.9 °F 12.2 °F 63% 29.94 in 10.0 mi WNW 24.2 mph 31.1 mph N/A   Scattered Clouds
6:35 AM 21.2 °F 6.4 °F 10.4 °F 63% 29.95 in 10.0 mi WNW 18.4 mph 31.1 mph N/A   Scattered Clouds
6:55 AM 19.4 °F 3.6 °F 12.2 °F 74% 29.96 in 10.0 mi WNW 19.6 mph 33.4 mph N/A   Clear
7:15 AM 19.4 °F 2.8 °F 10.4 °F 68% 29.98 in 10.0 mi WNW 21.9 mph 35.7 mph N/A   Clear
7:35 AM 19.4 °F 1.8 °F 8.6 °F 63% 29.99 in 10.0 mi WNW 25.3 mph 38.0 mph N/A   Scattered Clouds
7:55 AM 17.6 °F 0.1 °F 8.6 °F 68% 30.01 in 10.0 mi WNW 23.0 mph 33.4 mph N/A   Scattered Clouds
8:15 AM 17.6 °F -0.3 °F 8.6 °F 68% 30.03 in 7.0 mi West 24.2 mph 32.2 mph N/A Snow Light Snow
8:35 AM 17.6 °F -0.6 °F 8.6 °F 68% 30.05 in 10.0 mi WNW 25.3 mph 32.2 mph N/A   Mostly Cloudy
8:55 AM 17.6 °F 3.2 °F 8.6 °F 68% 30.06 in 10.0 mi West 15.0 mph 24.2 mph N/A   Scattered Clouds
9:15 AM 17.6 °F -1.0 °F 3.2 °F 53% 30.08 in 10.0 mi WNW 26.5 mph 35.7 mph N/A   Scattered Clouds
9:35 AM 17.6 °F 1.7 °F 3.2 °F 53% 30.08 in 10.0 mi West 18.4 mph 33.4 mph N/A   Clear
9:55 AM 17.6 °F -0.3 °F 3.2 °F 53% 30.10 in 10.0 mi WNW 24.2 mph 29.9 mph N/A   Clear
10:15 AM 17.6 °F 1.7 °F 3.2 °F 53% 30.11 in 10.0 mi West 18.4 mph 25.3 mph N/A   Clear
10:35 AM 17.6 °F 0.1 °F 3.2 °F 53% 30.13 in 10.0 mi WNW 23.0 mph 31.1 mph N/A   Clear
11:15 AM 17.6 °F 2.7 °F 3.2 °F 53% 30.15 in 10.0 mi WNW 16.1 mph 25.3 mph N/A   Clear
11:35 AM 17.6 °F 0.9 °F 3.2 °F 53% 30.16 in 10.0 mi WNW 20.7 mph 27.6 mph N/A   Clear
11:55 AM 17.6 °F 2.2 °F 1.4 °F 49% 30.16 in 10.0 mi West 17.3 mph 26.5 mph N/A   Clear
12:15 PM 19.4 °F 4.1 °F 1.4 °F 46% 30.16 in 10.0 mi NW 18.4 mph - N/A   Clear
12:35 PM 19.4 °F 5.5 °F 3.2 °F 49% 30.16 in 10.0 mi WNW 15.0 mph 21.9 mph N/A   Clear
12:55 PM 19.4 °F 5.0 °F 3.2 °F 49% 30.15 in 10.0 mi NW 16.1 mph 23.0 mph N/A   Clear
1:15 PM 21.2 °F 5.6 °F 3.2 °F 46% 30.15 in 10.0 mi WNW 20.7 mph 26.5 mph N/A   Clear
1:35 PM 21.2 °F 6.4 °F 1.4 °F 42% 30.15 in 10.0 mi West 18.4 mph 26.5 mph N/A   Clear
1:55 PM 21.2 °F 6.8 °F 3.2 °F 46% 30.15 in 10.0 mi WNW 17.3 mph 26.5 mph N/A   Clear
2:15 PM 21.2 °F 4.9 °F 1.4 °F 42% 30.16 in 10.0 mi NW 23.0 mph 28.8 mph N/A   Clear
2:35 PM 21.2 °F 5.6 °F 3.2 °F 46% 30.16 in 10.0 mi WNW 20.7 mph 29.9 mph N/A   Clear
2:55 PM 21.2 °F 7.3 °F 1.4 °F 42% 30.16 in 10.0 mi NW 16.1 mph 28.8 mph N/A   Clear
3:15 PM 23.0 °F 8.3 °F 1.4 °F 39% 30.17 in 10.0 mi NW 19.6 mph 29.9 mph N/A   Clear
3:35 PM 23.0 °F 10.6 °F 1.4 °F 39% 30.17 in 10.0 mi NW 13.8 mph 25.3 mph N/A   Clear
4:15 PM 23.0 °F 9.6 °F 1.4 °F 39% 30.18 in 10.0 mi WNW 16.1 mph 20.7 mph N/A   Clear
4:35 PM 23.0 °F 10.6 °F 1.4 °F 39% 30.18 in 10.0 mi NW 13.8 mph 23.0 mph N/A   Clear
4:55 PM 23.0 °F 8.7 °F 1.4 °F 39% 30.19 in 10.0 mi NW 18.4 mph 23.0 mph N/A   Clear
5:15 PM 23.0 °F 11.7 °F 1.4 °F 39% 30.19 in 10.0 mi WNW 11.5 mph 18.4 mph N/A   Clear
5:35 PM 23.0 °F 11.7 °F 1.4 °F 39% 30.20 in 10.0 mi WNW 11.5 mph 19.6 mph N/A   Clear
5:55 PM 21.2 °F 13.6 °F 3.2 °F 46% 30.19 in 10.0 mi NW 5.8 mph - N/A   Clear
6:15 PM 21.2 °F 10.1 °F 3.2 °F 46% 30.20 in 10.0 mi WNW 10.4 mph - N/A   Clear
6:35 PM 21.2 °F 10.1 °F 3.2 °F 46% 30.21 in 10.0 mi WNW 10.4 mph - N/A   Clear
6:55 PM 21.2 °F 10.1 °F 3.2 °F 46% 30.20 in 10.0 mi NW 10.4 mph - N/A   Clear
7:15 PM 19.4 °F 7.2 °F 3.2 °F 49% 30.21 in 10.0 mi WNW 11.5 mph - N/A   Clear
7:35 PM 19.4 °F 9.5 °F 3.2 °F 49% 30.21 in 10.0 mi WNW 8.1 mph - N/A   Clear
7:55 PM 19.4 °F 12.8 °F 3.2 °F 49% 30.22 in 10.0 mi WNW 4.6 mph - N/A   Clear
8:15 PM 19.4 °F 10.4 °F 5.0 °F 54% 30.23 in 10.0 mi WNW 6.9 mph - N/A   Clear
8:35 PM 19.4 °F 14.3 °F 5.0 °F 54% 30.24 in 10.0 mi West 3.5 mph - N/A   Clear
8:55 PM 19.4 °F 9.5 °F 5.0 °F 54% 30.24 in 10.0 mi WNW 8.1 mph - N/A   Clear
9:15 PM 19.4 °F 10.4 °F 6.8 °F 58% 30.24 in 10.0 mi WNW 6.9 mph - N/A   Clear
9:35 PM 19.4 °F 14.3 °F 6.8 °F 58% 30.24 in 10.0 mi WNW 3.5 mph - N/A   Clear
9:55 PM 19.4 °F - 6.8 °F 58% 30.24 in 10.0 mi Calm Calm - N/A   Clear
10:15 PM 17.6 °F 12.3 °F 6.8 °F 63% 30.24 in 10.0 mi WNW 3.5 mph - N/A   Clear
10:35 PM 17.6 °F 9.3 °F 6.8 °F 63% 30.24 in 10.0 mi WNW 5.8 mph - N/A   Clear
10:55 PM 17.6 °F 10.7 °F 6.8 °F 63% 30.24 in 10.0 mi West 4.6 mph - N/A   Clear
11:15 PM 17.6 °F 8.2 °F 6.8 °F 63% 30.23 in 10.0 mi WNW 6.9 mph - N/A   Clear
11:35 PM 17.6 °F 10.7 °F 6.8 °F 63% 30.23 in 10.0 mi West 4.6 mph - N/A   Clear
11:55 PM 17.6 °F 12.3 °F 6.8 °F 63% 30.23 in 10.0 mi WNW 3.5 mph - N/A   Clear